Regional Weather Roundup
Issued by NWS

Home | Current Version | Previous Version | Graphics & Text | Print | Product List | Glossary On
Versions: 1 2 3 4 5 6 7 8 9 10 11 12 13 14 15 16 17 18 19 20 21 22 23 24 25 26 27 28 29 30 31 32 33 34 35 36 37 38 39 40 41 42 43 44 45 46 47 48 49 50
000
ASUS43 KOAX 160510
RWRNE

WEATHER ROUNDUP FOR NEBRASKA
NATIONAL WEATHER SERVICE OMAHA NE
1100 PM CST FRI DEC 15 2017

NOTES: SATELLITE DATA IS BEING USED TO AUGMENT CLOUD COVER ABOVE
       12000 FEET.
       "FAIR" INDICATES FEW OR NO CLOUDS BELOW 12,000 FEET WITH NO
       SIGNIFICANT WEATHER AND/OR OBSTRUCTIONS TO VISIBILITY.


NEZ001>004-019>022-054>056-160600-
NEBRASKA PANHANDLE

CITY           SKY/WX    TMP DP  RH WIND       PRES   REMARKS
SCOTTSBLUFF    CLOUDY    45   8  22 NW9       29.75F
ALLIANCE       CLOUDY    38  13  35 W10       29.73F WCI  31
CHADRON        CLOUDY    35  19  52 W8        29.73R WCI  29
GORDON         FAIR      41  20  42 N3        29.70S
KIMBALL        CLOUDY    35   5  29 W5        29.79S WCI  30
SIDNEY         CLOUDY    37   9  31 W10       29.79F WCI  30
$$

NEZ057>060-069>072-079>082-160600-
SOUTHWEST NEBRASKA

CITY           SKY/WX    TMP DP  RH WIND       PRES   REMARKS
NORTH PLATTE   CLOUDY    26  17  68 W3        29.75F
IMPERIAL       CLOUDY    33   9  36 W7        29.77F WCI  27
LEXINGTON      CLOUDY    33  14  44 NW3       29.75F
MCCOOK         CLOUDY    37  12  35 W12       29.78S WCI  29
OGALLALA       CLEAR     29  16  58 W5        29.76F WCI  24
$$

NEZ005>010-023>029-035>040-094-160600-
NORTH CENTRAL NEBRASKA

CITY           SKY/WX    TMP DP  RH WIND       PRES   REMARKS
VALENTINE      PTCLDY    37  25  61 SW13      29.69S WCI  29
AINSWORTH      CLOUDY    37  26  64 W8        29.69S WCI  31
BROKEN BOW     CLOUDY    41  20  43 W12       29.72S
O`NEILL        PTCLDY    38  26  61 W9        29.68R WCI  32
ORD            CLOUDY    36  21  54 CALM      29.70S
THEDFORD       CLOUDY    38  19  45 W8        29.72S WCI  33
$$

NEZ041-046>049-061>064-073>077-083>087-160600-
SOUTH CENTRAL NEBRASKA

CITY           SKY/WX    TMP DP  RH WIND       PRES   REMARKS
GRAND ISLAND   CLOUDY    42  19  39 SW14      29.74S
AURORA         CLEAR     36  22  57 SW9       29.74S WCI  29
HASTINGS       CLEAR     39  18  42 SW8       29.76F WCI  33
HEBRON         CLOUDY    41  22  46 SW13      29.79F
HOLDREGE       CLOUDY    40  15  37 SW9       29.76F WCI  33
KEARNEY        CLOUDY    41  14  33 SW14      29.75F
YORK           PTCLDY    36  23  60 SW12      29.75S WCI  27
$$

NEZ011>018-030>034-042>045-160600-
NORTHEAST NEBRASKA

CITY           SKY/WX    TMP DP  RH WIND       PRES   REMARKS
NORFOLK        CLEAR     36  23  59 CALM      29.66F
ALBION         CLOUDY    41  24  49 CALM      29.70F
BLAIR          CLOUDY    41  26  54 S13       29.72F
COLUMBUS       CLOUDY    36  23  59 SW6       29.73F WCI  31
FREMONT        CLOUDY    39  24  54 SW5       29.73F
TEKAMAH        PTCLDY    38  23  55 S9        29.71F WCI  31
WAYNE          CLEAR     35  24  64 CALM      29.66F
$$

NEZ050>053-065>068-078-088>093-160600-
SOUTHEAST NEBRASKA

CITY           SKY/WX    TMP DP  RH WIND       PRES   REMARKS
LINCOLN        CLEAR     40  22  48 SW10      29.77F WCI  33
OMAHA EPPLEY   CLOUDY    33  23  66 SE12      29.75F WCI  24
BEATRICE       CLOUDY    41  24  50 SW12      29.80F
FALLS CITY     CLOUDY    42  24  49 SW18      29.83F
NEBRASKA CITY  CLOUDY    44  25  47 SW13      29.79S
PLATTSMOUTH    CLOUDY    43  24  47 SW15      29.77R
$$

NEZ044-045-051>053-067-160600-
OMAHA AREA

CITY           SKY/WX    TMP DP  RH WIND       PRES   REMARKS
OMAHA EPPLEY   CLOUDY    33  23  66 SE12      29.75F WCI  24
BLAIR          CLOUDY    41  26  54 S13       29.72F
FREMONT        CLOUDY    39  24  54 SW5       29.73F
MILLARD        CLOUDY    35  25  66 SE5       29.76S WCI  31
OFFUTT AFB     CLOUDY    29  21  72 SE6       29.75F WCI  23
PLATTSMOUTH    CLOUDY    43  24  47 SW15      29.77R
WAHOO          FAIR      41  23  49 SW10      29.73F
$$




USA.gov is the U.S. government's official web portal to all federal, state and local government web resources and services.